sat.trackr.live / text

‹ back to catalog

STARLINK-33722

NORAD 63571 · 2025-076C

PAYLOAD ACTIVE UNKNOWN

§ Identity

Operator
Country
US
Launch date
2025-04-14
Launch site
AFETR
Launch vehicle
Mass (kg)
RCS (m²)

Purposes: comms

External: N2YO · Heavens-Above · Gunter

§ Orbital elements

Epoch: 2026-05-24T16:20:02.690016Z

Period
94.27 min
Inclination
43.0010°
Eccentricity
0.0001772
Mean motion
15.27597275 rev/d
Perigee alt
481.8 km
Apogee alt
484.2 km
Semi-major
6,861.1 km
B*
4.5524e-4
RAAN
252.4219°
Arg perigee
270.1107°
Mean anomaly
89.9542°
Rev number
6,344

§ Raw data

STARLINK-337221 63571U 25076C   26144.68058669  .00012292  00000+0  45524-3 0  99952 63571  43.0010 252.4219 0001772 270.1107  89.9542 15.27597275 63446

JSON: /api/v1/satellites/63571 · /tle

For live sub-satellite position, see the globe view (requires WebGL).

§ Visibility from observer

Set your observer location to see the next 7 days of passes ≥ 10°. The values pass through the URL so the page stays shareable.

No JS? Fill the form by hand. The geolocation button needs JavaScript.